PEGASUS DEB, 24973

Orbit data source: Space-Track

PEGASUS DEB, 24973 is space debris in LEO originally from a launch on Thu, 19 May 1994 UTC launched from the Air Force Western Test Range (AFWTR). Debris objects in space refer to the collection of defunct objects orbiting the Earth. Examples of debris include non-operational satellites, rocket bodies, and fragments generated from explosions, collisions, or faulty payload assembly.

Loading next visibility...
Identifier
24973, 1994-029ACF
Orbit
LEO
Country
Flag of USUS
Related business
Manufacturer
Unknown
Mission
Spacecraft
Bus & Motor
Unknown
Mass
Unknown
Launch date (UTC)
1994-05-19 (32 years ago)
Launch vehicle
Unknown
Launch site
Air Force Western Test Range (AFWTR)
Object type
Payload
Rocket body
Debris
Shape & HBR
Unknown shape, 0.1 m
Radar Cross Section
Small (<0.1 m²)

Expand to show TLE details & history
Last TLE update: 16 hours ago

TLE from 16 hours ago
0 PEGASUS DEB
1 24973U 94029ACF 26174.87940796  .00001950  00000-0  39847-3 0  9998
2 24973  82.0138  39.0938 0295113 127.2766 247.7332 14.36355163549804
Epoch: 2026-06-23T21:06Z
TLE epoch observation values (Epoch: 2026-06-23T21:06:20.847Z)
Latitude
11.76264°
Longitude
172.12756°
Altitude
857.97 km
Speed
7.38 km/s
True Right ascension
02h 43m 02s
True Declination
11° 41' 43"
Sunlit
Object was in daylight at epoch
Visualization orbit readout
Latitude
Unknown
Longitude
Unknown
Altitude
Unknown
Speed
Unknown
Apparent Right ascension
Unknown
Apparent Declination
Unknown
Sunlit
N/A
Visualization observer readout
Local Sidereal Time
00:15:20
Azimuth
Unknown
Elevation
Unknown
Doppler factor
Unknown
Orbital elements
Apogee altitude
978.548 km
Perigee altitude
556.784 km
Semi-major axis
7,145.803 km
Eccentricity
0.02951
Inclination
82.0138°
RAAN
39.0938°
Arg. of periapsis
127.2766°
True anomaly
244.64829°
Mean anomaly
247.7332°
Eccentric anomaly
246.18628°
Mean motion
3.59308 °/min
Orbital period
100.19 mins
BSTAR
0.00039847
Loading maneuver chart data...
Computing Atmospheric mass density...

Documentation

Showing up to 5 results
|